CZ-6A DEB, 56646

Orbit data source: Space-Track

CZ-6A DEB, 56646 is space debris in SSO originally from a launch on Fri, 11 Nov 2022 UTC launched from the Taiyaun Space Center, China (TSC). Debris objects in space refer to the collection of defunct objects orbiting the Earth. Examples of debris include non-operational satellites, rocket bodies, and fragments generated from explosions, collisions, or faulty payload assembly.

Loading next visibility...
Identifier
56646, 2022-151AFW
Orbit
SSO
Country
Flag of CNCN / PRC
Related business
Manufacturer
SAST
Mission
Spacecraft
Bus & Motor
Unknown
Mass
Unknown
Launch date (UTC)
2022-11-11 (4 years ago)
Launch vehicle
Unknown
Launch site
Taiyaun Space Center, China (TSC)
Object type
Payload
Rocket body
Debris
Shape & HBR
Unknown shape, 0.1 m
Radar Cross Section
Small (<0.1 m²)

Expand to show TLE details & history
Last TLE update: 2 days ago

TLE from 2 days ago
0 CZ-6A DEB
1 56646U 22151AFW 26171.43909949  .00001008  00000-0  25935-3 0  9998
2 56646  98.6977 240.5202 0103359 303.2008  55.9307 14.49401833166534
Epoch: 2026-06-20T10:32Z
TLE epoch observation values (Epoch: 2026-06-20T10:32:18.195Z)
Latitude
-0.00003°
Longitude
173.79068°
Altitude
689.932 km
Speed
7.533 km/s
True Right ascension
16h 02m 04s
True Declination
0° 00' 00"
Sunlit
Object was in full shadow at epoch
Visualization orbit readout
Latitude
Unknown
Longitude
Unknown
Altitude
Unknown
Speed
Unknown
Apparent Right ascension
Unknown
Apparent Declination
Unknown
Sunlit
N/A
Visualization observer readout
Local Sidereal Time
23:19:33
Azimuth
Unknown
Elevation
Unknown
Doppler factor
Unknown
Orbital elements
Apogee altitude
798.136 km
Perigee altitude
651.307 km
Semi-major axis
7,102.858 km
Eccentricity
0.01034
Inclination
98.6977°
RAAN
240.5202°
Arg. of periapsis
303.2008°
True anomaly
56.91892°
Mean anomaly
55.9307°
Eccentric anomaly
56.4241°
Mean motion
3.62571 °/min
Orbital period
99.29 mins
BSTAR
0.00025935
Loading maneuver chart data...
Computing Atmospheric mass density...
Loading historical data...
Loading historical data...
Loading historical data...
Loading historical data...
Loading historical data...
Loading historical data...
Loading historical data...

Documentation

Showing up to 5 results
|